Highgate, VT

7:39 AM EDT on August 24, 2019 (GMT -0400)
Franklin County State

Weather History for KFSO - June, 2019

Change the Weather History Date:

Tuesday, June 11, 2019

  Actual Average (KPBG) Record (KPBG)
Temperature  
Mean Temperature 60 °F -  
Max Temperature 68 °F 75 °F 94 °F (2017)
Min Temperature 50 °F 53 °F 39 °F (2018)
Degree Days  
Heating Degree Days 6    
Growing Degree Days 10 (Base 50)    
Moisture  
Dew Point 57 °F    
Average Humidity 80    
Maximum Humidity 96    
Minimum Humidity 54    
Precipitation  
Precipitation 0.00 in - - ()
Sea Level Pressure  
Sea Level Pressure 29.89 in    
Wind  
Wind Speed 4 mph (WSW)    
Max Wind Speed 10 mph    
Max Gust Speed 21 mph    
Visibility 9 miles    
Events Rain    
Averages and records for this station are not official NWS values.
T = Trace of Precipitation, MM = Missing Value Source: NWS Daily Summary

Daily Weather History Graph

Daily Weather History Graph

Search for Another Location

Airport or City:

Astronomy

Jun. 11, 2019 Rise Set
Actual Time 5:05 AM EDT 8:38 PM EDT
Civil Twilight 4:28 AM EDT 9:15 PM EDT
Nautical Twilight 3:39 AM EDT 10:04 PM EDT
Astronomical Twilight 2:35 AM EDT 11:09 PM EDT
Moon 2:17 PM EDT (6/11) 2:07 AM EDT (6/11)
Length of Visible Light 16h 47m
Length of Day
15h 32m
Waxing Gibbous, 66% of the Moon is Illuminated
Jun 11
Waxing Gibbous
Jun 17
Full
Jun 25
Last Quarter
Jul 2
New
Jul 9
First Quarter

Hourly Weather History & Observations

Time (EDT) Temp. Dew Point Humidity Pressure Visibility Wind Dir Wind Speed Gust Speed Precip Events Conditions
12:15 AM 66.4 °F 63.0 °F 89% 29.82 in 10.0 mi SE 5.8 mph - N/A Rain Rain
12:35 AM 66.2 °F 62.8 °F 89% 29.81 in 10.0 mi SSE 8.1 mph - N/A Rain Light Rain
12:56 AM 66.2 °F 63.0 °F 89% 29.79 in 10.0 mi South 5.8 mph - N/A   Mostly Cloudy
1:15 AM 65.7 °F 63.3 °F 92% 29.79 in 7.0 mi South 3.5 mph - N/A   Drizzle
1:36 AM 65.3 °F 63.5 °F 94% 29.78 in 10.0 mi Calm Calm - N/A   Overcast
1:55 AM 65.3 °F 63.7 °F 94% 29.77 in 10.0 mi Calm Calm - N/A Rain Rain
2:15 AM 65.3 °F 63.9 °F 95% 29.75 in 4.0 mi Calm Calm - N/A Rain Rain
2:36 AM 65.5 °F 64.2 °F 96% 29.74 in 5.0 mi SSE 3.5 mph - N/A Rain Rain
2:56 AM 66.2 °F 64.9 °F 96% 29.73 in 3.0 mi Calm Calm - N/A Rain Rain
3:16 AM 65.5 °F 64.4 °F 96% 29.72 in 4.0 mi Calm Calm - N/A Rain Rain
3:35 AM 65.3 °F 63.9 °F 95% 29.71 in 4.0 mi Calm Calm - N/A Rain Rain
3:55 AM 65.3 °F 63.9 °F 95% 29.71 in 4.0 mi Calm Calm - N/A Rain Rain
4:16 AM 64.9 °F 63.7 °F 96% 29.70 in 3.0 mi South 4.6 mph - N/A Rain Rain
4:35 AM 65.3 °F 63.9 °F 95% 29.70 in 7.0 mi South 3.5 mph - N/A Rain Light Rain
4:55 AM 65.3 °F 63.9 °F 95% 29.70 in 7.0 mi Calm Calm - N/A Rain Rain
5:15 AM 65.7 °F 64.4 °F 96% 29.70 in 7.0 mi South 3.5 mph - N/A Rain Rain
5:35 AM 65.8 °F 64.6 °F 96% 29.70 in 7.0 mi South 4.6 mph - N/A Rain Light Rain
5:56 AM 66.4 °F 65.3 °F 96% 29.70 in 10.0 mi South 5.8 mph - N/A Rain Rain
6:15 AM 66.7 °F 65.5 °F 96% 29.70 in 10.0 mi South 4.6 mph - N/A Rain Rain
6:36 AM 67.1 °F 66.0 °F 96% 29.71 in 5.0 mi South 4.6 mph - N/A Rain Rain
6:55 AM 68.0 °F 66.4 °F 95% 29.72 in 7.0 mi SW 4.6 mph - N/A Rain Rain
7:16 AM 67.1 °F 65.7 °F 95% 29.75 in 4.0 mi WSW 5.8 mph - N/A Rain Rain
7:36 AM 66.6 °F 65.3 °F 96% 29.76 in 10.0 mi Calm Calm - N/A   Drizzle
7:55 AM 66.2 °F 64.9 °F 96% 29.77 in 10.0 mi Calm Calm - N/A   Overcast
8:15 AM 66.2 °F 64.9 °F 96% 29.78 in 10.0 mi Calm Calm - N/A   Overcast
8:35 AM 64.2 °F 62.4 °F 94% 29.79 in 10.0 mi SW 5.8 mph - N/A Rain Light Rain
8:56 AM 63.0 °F 59.7 °F 89% 29.82 in 10.0 mi WSW 6.9 mph - N/A Rain Light Rain
9:15 AM 63.0 °F 59.0 °F 87% 29.83 in 10.0 mi WSW 6.9 mph - N/A   Overcast
9:35 AM 63.1 °F 58.5 °F 85% 29.84 in 10.0 mi SW 4.6 mph - N/A   Overcast
9:56 AM 63.5 °F 58.1 °F 83% 29.84 in 10.0 mi West 4.6 mph - N/A   Overcast
10:15 AM 63.1 °F 57.2 °F 81% 29.85 in 10.0 mi West 8.1 mph - N/A   Overcast
10:36 AM 63.5 °F 56.5 °F 78% 29.86 in 10.0 mi West 9.2 mph - N/A   Overcast
10:56 AM 63.7 °F 56.3 °F 77% 29.87 in 10.0 mi WSW 6.9 mph - N/A   Overcast
11:15 AM 63.5 °F 55.6 °F 75% 29.88 in 10.0 mi West 10.4 mph 19.6 mph N/A   Overcast
11:35 AM 62.4 °F 55.0 °F 77% 29.89 in 7.0 mi West 10.4 mph 19.6 mph N/A   Overcast
11:55 AM 61.9 °F 55.0 °F 78% 29.90 in 10.0 mi WSW 8.1 mph 20.7 mph N/A   Overcast
12:15 PM 61.2 °F 54.5 °F 79% 29.91 in 10.0 mi WSW 8.1 mph - N/A   Overcast
12:36 PM 61.5 °F 53.6 °F 75% 29.92 in 10.0 mi West 9.2 mph - N/A   Overcast
12:55 PM 62.1 °F 53.6 °F 74% 29.92 in 10.0 mi West 4.6 mph - N/A   Overcast
1:15 PM 61.9 °F 53.2 °F 73% 29.93 in 10.0 mi West 5.8 mph 16.1 mph N/A   Overcast
1:35 PM 63.0 °F 52.7 °F 69% 29.93 in 10.0 mi West 6.9 mph 18.4 mph N/A   Overcast
1:55 PM 63.3 °F 52.9 °F 69% 29.93 in 10.0 mi WNW 3.5 mph - N/A   Overcast
2:16 PM 64.0 °F 52.7 °F 67% 29.93 in 10.0 mi WNW 6.9 mph - N/A   Overcast
2:35 PM 65.5 °F 51.1 °F 60% 29.93 in 10.0 mi WNW 6.9 mph 20.7 mph N/A   Overcast
2:55 PM 65.3 °F 50.7 °F 59% 29.94 in 10.0 mi WNW 5.8 mph 16.1 mph N/A   Overcast
3:15 PM 65.8 °F 50.9 °F 58% 29.95 in 10.0 mi WNW 6.9 mph - N/A   Overcast
3:36 PM 65.7 °F 51.1 °F 59% 29.96 in 10.0 mi WNW 5.8 mph - N/A   Overcast
3:55 PM 65.5 °F 50.7 °F 59% 29.97 in 10.0 mi West 10.4 mph 16.1 mph N/A   Overcast
4:16 PM 66.4 °F 50.5 °F 57% 29.97 in 10.0 mi West 4.6 mph 17.3 mph N/A   Overcast
4:35 PM 66.0 °F 50.5 °F 57% 29.98 in 10.0 mi West 6.9 mph 17.3 mph N/A   Overcast
4:55 PM 66.6 °F 50.9 °F 57% 29.99 in 10.0 mi West 4.6 mph - N/A   Overcast
5:15 PM 66.2 °F 50.7 °F 57% 30.00 in 10.0 mi WNW 8.1 mph - N/A   Overcast
5:36 PM 65.3 °F 51.3 °F 60% 30.00 in 10.0 mi WNW 8.1 mph - N/A   Overcast
5:55 PM 65.3 °F 50.2 °F 58% 30.01 in 10.0 mi WNW 6.9 mph - N/A   Overcast
6:16 PM 65.5 °F 50.2 °F 58% 30.01 in 10.0 mi WNW 8.1 mph - N/A   Overcast
6:35 PM 65.7 °F 50.4 °F 58% 30.02 in 10.0 mi WNW 6.9 mph - N/A   Overcast
6:55 PM 66.2 °F 50.0 °F 56% 30.02 in 10.0 mi NW 5.8 mph - N/A   Overcast
7:16 PM 66.4 °F 49.5 °F 54% 30.03 in 10.0 mi WNW 9.2 mph 16.1 mph N/A   Mostly Cloudy
7:35 PM 65.8 °F 49.1 °F 55% 30.03 in 10.0 mi WNW 6.9 mph - N/A   Scattered Clouds
7:56 PM 65.3 °F 49.3 °F 56% 30.03 in 10.0 mi West 3.5 mph - N/A   Scattered Clouds
8:15 PM 63.0 °F 49.5 °F 61% 30.03 in 10.0 mi Calm Calm - N/A   Clear
8:35 PM 61.9 °F 50.0 °F 65% 30.04 in 10.0 mi Calm Calm - N/A   Clear
8:56 PM 59.4 °F 50.5 °F 73% 30.04 in 10.0 mi Calm Calm - N/A   Clear
9:15 PM 57.9 °F 51.1 °F 78% 30.05 in 10.0 mi Calm Calm - N/A   Clear
9:36 PM 57.7 °F 51.1 °F 78% 30.05 in 10.0 mi Calm Calm - N/A   Clear
9:55 PM 56.3 °F 52.0 °F 85% 30.05 in 10.0 mi Calm Calm - N/A   Clear
10:16 PM 56.3 °F 51.4 °F 84% 30.05 in 10.0 mi Calm Calm - N/A   Clear
10:35 PM 54.0 °F 50.9 °F 89% 30.05 in 10.0 mi Calm Calm - N/A   Clear
10:56 PM 52.5 °F 50.4 °F 92% 30.05 in 10.0 mi Calm Calm - N/A   Clear
11:16 PM 51.6 °F 50.0 °F 94% 30.05 in 10.0 mi Calm Calm - N/A   Clear
11:35 PM 51.1 °F 49.6 °F 95% 30.05 in 10.0 mi Calm Calm - N/A   Clear
11:56 PM 50.9 °F 49.5 °F 95% 30.04 in 10.0 mi Calm Calm - N/A   Clear